"Pseudo-MPEC" for ZLB1C05

Created 2018 Jun 18 13:18:43 UT using Find_Orb

Click here for an explanation of pseudo-MPECs

 
 Astrometry: 
     ZLB1C05  C2018 06 11.45434 23 31 05.02 +15 11 14.2          20.1 GUNEOCPG96
     ZLB1C05  C2018 06 11.45867 23 31 05.66 +15 11 17.3          20.1 GUNEOCPG96
     ZLB1C05  C2018 06 11.46300 23 31 06.28 +15 11 20.4          20.4 GUNEOCPG96
     ZLB1C05 pC2018 06 12rpAstrometryJ:ILcH?((n[-#u;Z9nk+7x6y+4\#^`qa2Z/,c7xyL01
     ZLB1C05 KC2018 06 12#sn8g0`)UktS\M^pd.J3o7HXCeJCcI!6=mW'S:]xi6ZO*Zk8+XaBL01
     ZLB1C05 KC2018 06 12@?kjb.m=ydd0kqK(predacted;:s*05kmMPKiL,/kQS-`%9dCI/;L01
     ZLB1C05 KC2018 06 12Nleh?oSA*x42(9!.ydyQq`kq?^[c-D$\6i$U81vwcd/kXdyW(R.yL01
     ZLB1C05 KC2018 06 13mSp27+uE)S[@v9O5%2hDu4_3Zg@B@3vjseeE3OA2XNGRK;\`@brbJ04
     ZLB1C05 KC2018 06 13,mvc,dCM*?m=o]]27oDfqw72YQ,uIH'pyjV=g)GaPVg49yLcwlZNJ04
     ZLB1C05 KC2018 06 13)F-Z,(].d-a.c$PF%kvwGc2;8$9*8h38OGx2*`PkH8TLhRYNEOCPJ04
     ZLB1C05  C2018 06 13.43456 23 35 55.69 +15 34 01.0          19.3 GUNEOCPI52
     ZLB1C05  C2018 06 13.43532 23 35 55.81 +15 34 01.6          19.7 GUNEOCPI52
     ZLB1C05  C2018 06 13.44024 23 35 56.49 +15 34 05.2          19.9 GUNEOCPI52
     ZLB1C05  C2018 06 13.44517 23 35 57.19 +15 34 08.0          19.7 GUNEOCPI52
     ZLB1C05  C2018 06 18.42466 23 47 57.53 +16 27 47.7          19.4 GUNEOCPI52
     ZLB1C05  C2018 06 18.42753 23 47 57.93 +16 27 49.5          20.6 GUNEOCPI52
     ZLB1C05  C2018 06 18.43233 23 47 58.61 +16 27 52.5          19.9 GUNEOCPI52
     ZLB1C05  C2018 06 18.44007 23 47 59.74 +16 27 57.5          19.7 GUNEOCPI52

Station data:
(G96) Mt. Lemmon Survey  (N32.442754 W110.788720)  US/Arizona.  Observers B.
   M. Africano, E. J. Christensen, D. C. Fuls, A. R. Gibbs, A. D. Grauer, J.
   A. Johnson, R. A. Kowalski, S. M. Larson, G. J. Leonard, R. L. Seaman, F.
   C. Shelly. 1.5-m reflector + 10K CCD.
(I52) Steward Observatory, Mt. Lemmon Station  (N32.442547 W110.788920)
   US/Arizona.  Observers B. M. Africano, E. J. Christensen, D. C. Fuls, A.
   R. Gibbs, A. D. Grauer, J. A. Johnson, R. A. Kowalski, S. M. Larson, G. J.
   Leonard, R. L. Seaman, F. C. Shelly. 1.0-m reflector + CCD.
(J04) ESA Optical Ground Station, Tenerife  (N28.300924 W16.511830)  Canary
   Islands (Spain).  Observer D. Abreu. Measurers M. Micheli, D. Koschny, E.
   Schwab, M. Busch, A. Knöfel. 1.0-m f/4.4 reflector + CCD.
(L01) Višnjan Observatory, Tičan  (N45.290900 E13.749300)  Croatia.  Observer
   K. Korlević. 1.0-m f/2.9 reflector + CCD.

Orbital elements:  ZLB1C05
   Perihelion 2018 Jun 10.450996 +/- 2.32 TT = 10:49:26 (JD 2458279.950996)
Epoch 2018 Jun 18.0 TT = JDT 2458287.5   Earth MOID: 0.6829   Ju: 0.4351
M   0.64300 +/- 0.6                 (J2000 ecliptic)          AutoNEOCP
n   0.08517712 +/- 0.084            Peri.  125.49822 +/- 0.8
a   5.11588444 +/- 3.36             Node   192.29306 +/- 2.5
e   0.6830518 +/- 0.2               Incl.   18.39504 +/- 0.20
P  11.57                   H 16.9   G  0.15   U 11.1  
q 1.62146996 +/- 0.0706    Q 8.61029892 +/- 10.6
From 18 observations 2018 June 11-18; mean residual 0".25
Residuals in arcseconds: 
180611 G96  .02+  .08+    180612 L01  .08+  .32-    180613 I52  .08+  .25+    
180611 G96  .16+  .12+    180613 J04  .67-  .15-    180613 I52  .10-  .33-    
180611 G96  .01+  .16+    180613 J04  .09-  .34+    180618 I52  .07-  .08-    
180612 L01  .17-  .14-    180613 J04  .08-  .32+    180618 I52  .16-  .06-    
180612 L01  .02+  .66-    180613 I52  .39+  .07-    180618 I52  .15-  .04-    
180612 L01  .06-  .28+    180613 I52  .53+  .01+    180618 I52  .37+  .16+    

Ephemerides (geocentric):
Date (UTC) HH   RA              Dec         delta   r     elong  mag " sig PA
---- -- -- --  -------------   -----------  ------ ------ -----  --- ---- ---
2018 06 18 13  23 48 13.990   +16 29 01.74  1.3921 1.6240  83.2 20.2  2.4  65
2018 06 18 14  23 48 19.947   +16 29 27.24  1.3919 1.6240  83.3 20.2  2.4  66
2018 06 18 15  23 48 25.902   +16 29 52.71  1.3916 1.6240  83.3 20.2  2.5  66
2018 06 18 16  23 48 31.856   +16 30 18.17  1.3914 1.6241  83.3 20.2  2.5  66
2018 06 18 17  23 48 37.809   +16 30 43.60  1.3912 1.6241  83.3 20.2  2.5  66
2018 06 18 18  23 48 43.761   +16 31 09.00  1.3909 1.6241  83.3 20.2  2.6  67
2018 06 18 19  23 48 49.712   +16 31 34.39  1.3907 1.6241  83.3 20.2  2.6  67
2018 06 18 20  23 48 55.661   +16 31 59.75  1.3905 1.6242  83.3 20.2  2.7  67
2018 06 18 21  23 49 01.610   +16 32 25.08  1.3903 1.6242  83.3 20.2  2.7  68
2018 06 18 22  23 49 07.557   +16 32 50.39  1.3900 1.6242  83.4 20.2  2.8  68
2018 06 18 23  23 49 13.503   +16 33 15.68  1.3898 1.6242  83.4 20.2  2.8  68
2018 06 19 00  23 49 19.447   +16 33 40.95  1.3896 1.6243  83.4 20.2  2.8  68
2018 06 19 01  23 49 25.391   +16 34 06.19  1.3893 1.6243  83.4 20.2  2.9  69
2018 06 19 02  23 49 31.333   +16 34 31.40  1.3891 1.6243  83.4 20.2  2.9  69
2018 06 19 03  23 49 37.274   +16 34 56.60  1.3889 1.6244  83.4 20.2  3.0  69
2018 06 19 04  23 49 43.214   +16 35 21.77  1.3887 1.6244  83.4 20.2  3.0  69
2018 06 19 05  23 49 49.153   +16 35 46.91  1.3884 1.6244  83.5 20.2  3.1  70
2018 06 19 06  23 49 55.091   +16 36 12.04  1.3882 1.6244  83.5 20.2  3.1  70
2018 06 19 07  23 50 01.027   +16 36 37.13  1.3880 1.6245  83.5 20.2  3.2  70
2018 06 19 08  23 50 06.963   +16 37 02.21  1.3878 1.6245  83.5 20.2  3.2  70
2018 06 19 09  23 50 12.897   +16 37 27.26  1.3875 1.6245  83.5 20.2  3.3  71
2018 06 19 10  23 50 18.829   +16 37 52.29  1.3873 1.6246  83.5 20.2  3.3  71
2018 06 19 11  23 50 24.761   +16 38 17.29  1.3871 1.6246  83.5 20.2  3.4  71
2018 06 19 12  23 50 30.691   +16 38 42.27  1.3868 1.6246  83.6 20.2  3.4  71
2018 06 19 13  23 50 36.621   +16 39 07.23  1.3866 1.6246  83.6 20.2  3.5  71
2018 06 19 14  23 50 42.549   +16 39 32.16  1.3864 1.6247  83.6 20.2  3.5  72
2018 06 19 15  23 50 48.476   +16 39 57.07  1.3862 1.6247  83.6 20.2  3.6  72
2018 06 19 16  23 50 54.401   +16 40 21.95  1.3859 1.6247  83.6 20.2  3.6  72
2018 06 19 17  23 51 00.326   +16 40 46.81  1.3857 1.6248  83.6 20.2  3.7  72
2018 06 19 18  23 51 06.249   +16 41 11.65  1.3855 1.6248  83.6 20.2  3.8  72
2018 06 19 19  23 51 12.171   +16 41 36.46  1.3853 1.6248  83.6 20.2  3.8  73
2018 06 19 20  23 51 18.092   +16 42 01.25  1.3850 1.6248  83.7 20.2  3.9  73
2018 06 19 21  23 51 24.011   +16 42 26.01  1.3848 1.6249  83.7 20.2  3.9  73
2018 06 19 22  23 51 29.929   +16 42 50.75  1.3846 1.6249  83.7 20.2  4.0  73
2018 06 19 23  23 51 35.847   +16 43 15.47  1.3843 1.6249  83.7 20.2  4.0  73
2018 06 20 00  23 51 41.763   +16 43 40.16  1.3841 1.6250  83.7 20.2  4.1  74
2018 06 20 01  23 51 47.677   +16 44 04.83  1.3839 1.6250  83.7 20.2  4.2  74
2018 06 20 02  23 51 53.591   +16 44 29.47  1.3837 1.6250  83.7 20.2  4.2  74
2018 06 20 03  23 51 59.503   +16 44 54.10  1.3834 1.6251  83.8 20.2  4.3  74
2018 06 20 04  23 52 05.414   +16 45 18.69  1.3832 1.6251  83.8 20.2  4.3  74
2018 06 20 05  23 52 11.324   +16 45 43.26  1.3830 1.6251  83.8 20.2  4.4  74
2018 06 20 06  23 52 17.233   +16 46 07.81  1.3828 1.6251  83.8 20.2  4.5  74
2018 06 20 07  23 52 23.140   +16 46 32.34  1.3825 1.6252  83.8 20.2  4.5  75
2018 06 20 08  23 52 29.046   +16 46 56.84  1.3823 1.6252  83.8 20.2  4.6  75
2018 06 20 09  23 52 34.951   +16 47 21.31  1.3821 1.6252  83.8 20.2  4.6  75
2018 06 20 10  23 52 40.855   +16 47 45.76  1.3819 1.6253  83.9 20.2  4.7  75
2018 06 20 11  23 52 46.757   +16 48 10.19  1.3816 1.6253  83.9 20.2  4.8  75
2018 06 20 12  23 52 52.658   +16 48 34.59  1.3814 1.6253  83.9 20.2  4.8  75